TimeCDT,TemperatureF,Dew PointF,Humidity,Sea Level PressureIn,VisibilityMPH,Wind Direction,Wind SpeedMPH,Gust SpeedMPH,PrecipitationIn,Events,Conditions,WindDirDegrees,DateUTC
12:15 AM,33.8,23.0,65,30.19,10.0,SE,5.8,-,N/A,,Overcast,130,2013-04-06 05:15:00
12:35 AM,33.8,21.2,60,30.19,10.0,SE,3.5,-,N/A,,Overcast,140,2013-04-06 05:35:00
12:55 AM,33.8,21.2,60,30.19,10.0,SSE,3.5,-,N/A,,Overcast,150,2013-04-06 05:55:00
1:15 AM,33.8,21.2,60,30.19,10.0,East,5.8,-,N/A,,Overcast,100,2013-04-06 06:15:00
1:35 AM,33.8,23.0,65,30.19,10.0,ESE,8.1,-,N/A,,Overcast,110,2013-04-06 06:35:00
1:55 AM,33.8,24.8,70,30.18,10.0,East,5.8,-,N/A,,Overcast,90,2013-04-06 06:55:00
2:15 AM,33.8,24.8,70,30.17,10.0,East,3.5,-,N/A,,Overcast,80,2013-04-06 07:15:00
2:35 AM,33.8,24.8,70,30.17,9.0,SSE,4.6,-,N/A,,Overcast,160,2013-04-06 07:35:00
2:55 AM,32.0,26.6,80,30.16,2.5,SSE,6.9,-,N/A,,Overcast,160,2013-04-06 07:55:00
3:15 AM,32.0,26.6,80,30.15,5.0,ESE,6.9,-,N/A,,Overcast,120,2013-04-06 08:15:00
3:35 AM,32.0,28.4,87,30.13,5.0,ESE,9.2,-,N/A,,Overcast,110,2013-04-06 08:35:00
3:55 AM,30.2,28.4,93,30.12,3.0,ESE,11.5,-,N/A,,Overcast,110,2013-04-06 08:55:00
4:15 AM,30.2,28.4,93,30.10,3.0,East,13.8,-,N/A,,Overcast,90,2013-04-06 09:15:00
4:35 AM,30.2,28.4,93,30.09,10.0,East,15.0,19.6,N/A,,Overcast,100,2013-04-06 09:35:00
4:55 AM,32.0,28.4,87,30.08,10.0,East,15.0,-,N/A,,Overcast,100,2013-04-06 09:55:00
5:15 AM,32.0,28.4,87,30.09,10.0,East,13.8,21.9,N/A,,Overcast,100,2013-04-06 10:15:00
5:35 AM,32.0,30.2,93,30.08,10.0,ESE,15.0,-,N/A,,Overcast,110,2013-04-06 10:35:00
5:55 AM,32.0,30.2,93,30.07,10.0,ESE,12.7,-,N/A,,Overcast,110,2013-04-06 10:55:00
6:15 AM,33.8,30.2,87,30.06,10.0,ESE,15.0,20.7,N/A,,Overcast,110,2013-04-06 11:15:00
6:35 AM,33.8,30.2,87,30.06,10.0,ESE,16.1,23.0,N/A,,Overcast,110,2013-04-06 11:35:00
6:55 AM,33.8,30.2,87,30.05,10.0,ESE,16.1,20.7,N/A,,Overcast,120,2013-04-06 11:55:00
7:15 AM,33.8,30.2,87,30.05,10.0,ESE,15.0,21.9,N/A,,Overcast,110,2013-04-06 12:15:00
7:35 AM,33.8,30.2,87,30.04,10.0,ESE,15.0,21.9,N/A,,Overcast,110,2013-04-06 12:35:00
7:55 AM,33.8,26.6,75,30.03,10.0,ESE,16.1,20.7,N/A,,Mostly Cloudy,110,2013-04-06 12:55:00
8:15 AM,35.6,28.4,75,30.02,10.0,ESE,17.3,23.0,N/A,,Partly Cloudy,110,2013-04-06 13:15:00
8:35 AM,35.6,28.4,75,30.01,10.0,ESE,15.0,-,N/A,,Clear,120,2013-04-06 13:35:00
8:55 AM,35.6,28.4,75,29.99,10.0,SE,17.3,-,N/A,,Partly Cloudy,130,2013-04-06 13:55:00
9:15 AM,37.4,28.4,70,29.97,10.0,SE,17.3,21.9,N/A,,Partly Cloudy,140,2013-04-06 14:15:00
9:35 AM,37.4,30.2,75,29.96,10.0,SE,17.3,23.0,N/A,,Partly Cloudy,130,2013-04-06 14:35:00
9:55 AM,37.4,30.2,75,29.95,10.0,SE,18.4,23.0,N/A,,Mostly Cloudy,130,2013-04-06 14:55:00
10:15 AM,37.4,30.2,75,29.94,10.0,SE,19.6,25.3,N/A,,Mostly Cloudy,140,2013-04-06 15:15:00
10:35 AM,37.4,28.4,70,29.94,10.0,SE,20.7,26.5,N/A,,Overcast,140,2013-04-06 15:35:00
10:55 AM,37.4,30.2,75,29.93,10.0,SE,16.1,23.0,N/A,,Overcast,140,2013-04-06 15:55:00
11:15 AM,37.4,30.2,75,29.92,9.0,SSE,16.1,23.0,N/A,,Overcast,150,2013-04-06 16:15:00
11:35 AM,37.4,30.2,75,29.92,7.0,SSE,16.1,23.0,0.02,,Overcast,150,2013-04-06 16:35:00
11:55 AM,37.4,32.0,81,29.89,8.0,SSE,19.6,26.5,0.04,,Overcast,150,2013-04-06 16:55:00
12:15 PM,37.4,32.0,81,29.86,8.0,SSE,20.7,28.8,N/A,,Overcast,150,2013-04-06 17:15:00
12:35 PM,37.4,32.0,81,29.83,10.0,SSE,25.3,32.2,N/A,,Overcast,150,2013-04-06 17:35:00
12:55 PM,39.2,32.0,75,29.81,10.0,SSE,23.0,31.1,N/A,,Mostly Cloudy,150,2013-04-06 17:55:00
1:15 PM,39.2,32.0,75,29.80,10.0,SE,24.2,33.4,N/A,,Mostly Cloudy,140,2013-04-06 18:15:00
1:35 PM,41.0,33.8,76,29.78,10.0,SE,23.0,34.5,N/A,,Mostly Cloudy,140,2013-04-06 18:35:00
1:55 PM,41.0,30.2,65,29.77,10.0,SSE,25.3,31.1,N/A,,Scattered Clouds,150,2013-04-06 18:55:00
2:15 PM,41.0,30.2,65,29.75,10.0,SSE,24.2,35.7,N/A,,Overcast,150,2013-04-06 19:15:00
2:35 PM,42.8,30.2,61,29.75,10.0,SSE,24.2,34.5,N/A,,Overcast,150,2013-04-06 19:35:00
2:55 PM,42.8,30.2,61,29.74,10.0,SSE,24.2,28.8,N/A,,Overcast,150,2013-04-06 19:55:00
3:15 PM,42.8,30.2,61,29.73,10.0,SSE,20.7,28.8,N/A,,Overcast,150,2013-04-06 20:15:00
3:35 PM,42.8,32.0,66,29.72,10.0,SSE,17.3,24.2,N/A,,Overcast,160,2013-04-06 20:35:00
3:55 PM,42.8,30.2,61,29.70,10.0,SSE,13.8,-,N/A,,Overcast,160,2013-04-06 20:55:00
4:35 PM,42.8,32.0,66,29.67,10.0,SSE,13.8,23.0,N/A,,Overcast,150,2013-04-06 21:35:00
4:55 PM,42.8,32.0,66,29.64,10.0,SE,10.4,-,N/A,,Mostly Cloudy,140,2013-04-06 21:55:00
5:15 PM,42.8,33.8,70,29.66,10.0,South,11.5,-,N/A,,Mostly Cloudy,180,2013-04-06 22:15:00
5:35 PM,42.8,33.8,70,29.64,9.0,SSE,10.4,-,N/A,,Overcast,160,2013-04-06 22:35:00
5:55 PM,42.8,33.8,70,29.62,10.0,SSE,15.0,19.6,N/A,,Mostly Cloudy,150,2013-04-06 22:55:00
6:15 PM,44.6,35.6,71,29.60,10.0,SSE,17.3,24.2,N/A,,Mostly Cloudy,160,2013-04-06 23:15:00
6:35 PM,44.6,33.8,66,29.59,10.0,SSE,19.6,-,N/A,,Overcast,160,2013-04-06 23:35:00
6:55 PM,44.6,35.6,71,29.57,10.0,SSE,18.4,25.3,N/A,,Overcast,160,2013-04-06 23:55:00
7:15 PM,44.6,35.6,71,29.57,10.0,South,18.4,25.3,N/A,,Overcast,170,2013-04-07 00:15:00
7:35 PM,44.6,35.6,71,29.56,10.0,South,11.5,-,N/A,,Overcast,180,2013-04-07 00:35:00
7:55 PM,44.6,35.6,71,29.56,10.0,South,10.4,-,N/A,,Overcast,170,2013-04-07 00:55:00
8:15 PM,44.6,35.6,71,29.56,10.0,South,9.2,-,N/A,,Overcast,180,2013-04-07 01:15:00
8:35 PM,44.6,37.4,76,29.56,10.0,South,8.1,-,0.01,,Overcast,180,2013-04-07 01:35:00
8:55 PM,44.6,37.4,76,29.54,9.0,South,10.4,-,0.01,,Overcast,170,2013-04-07 01:55:00
9:15 PM,44.6,39.2,81,29.53,9.0,South,10.4,-,N/A,,Overcast,180,2013-04-07 02:15:00
9:35 PM,46.4,39.2,76,29.53,10.0,South,9.2,-,N/A,,Overcast,180,2013-04-07 02:35:00
9:55 PM,46.4,39.2,76,29.52,10.0,South,10.4,-,N/A,,Overcast,180,2013-04-07 02:55:00
10:15 PM,46.4,42.8,87,29.51,10.0,South,11.5,-,N/A,,Overcast,180,2013-04-07 03:15:00
10:35 PM,48.2,42.8,82,29.51,10.0,South,9.2,-,N/A,,Overcast,180,2013-04-07 03:35:00
10:55 PM,50.0,44.6,82,29.51,10.0,SSW,10.4,-,N/A,,Overcast,200,2013-04-07 03:55:00
11:15 PM,50.0,46.4,87,29.50,10.0,SSW,10.4,-,N/A,,Overcast,210,2013-04-07 04:15:00
11:35 PM,50.0,46.4,87,29.50,10.0,SSW,10.4,-,N/A,,Overcast,210,2013-04-07 04:35:00
11:55 PM,50.0,46.4,87,29.50,10.0,SW,8.1,-,N/A,,Overcast,220,2013-04-07 04:55:00